[[{"header":{"parameterUnit":"m.s-1","parameterCategory":1,"la1":30.2991,"la2":30.254,"lo1":-89.0895,"lo2":-89.0444,"dy":0.0017,"dx":0.0017,"nx":28,"ny":28,"refTime":"2024-04-03T09:00:00:Z","depth":0,"parameterNumber":2,"parameterNumberName":"U-component_of_WINDS"},"data":[0,0,0,0,0,0,0,0,0,0,0,0,0,0,0,0,0,0,0,0,0,0,0,0,0,0,0,0,0,0,0,0,0,0,0,0,0,0,0,0,0,0,0,0,0,0,0,0,0,0,0,0,0,0,0,0,0,0,4.7067,4.7068,0,4.7211,4.7212,4.7214,4.7173,4.717,4.7167,4.7165,4.7312,4.7319,4.7325,0,0,0,0,0,0,0,0,0,0,0,0,0,4.6758,4.6764,4.7067,4.7069,4.707,4.7211,4.7213,4.7214,4.7174,4.717,4.7167,4.7163,4.731,4.7318,4.7326,0,0,0,0,0,0,0,0,0,0,0,0,0,4.6896,4.6766,4.7066,4.7067,4.7068,4.721,4.7213,4.7215,4.7175,4.717,4.7166,4.7162,4.7308,4.7317,4.7327,4.7477,0,0,4.7358,4.7362,0,0,0,0,0,0,0,0,4.6888,4.6908,4.7065,4.7067,4.7069,4.717,4.7158,4.7303,4.7176,4.7134,4.7165,4.7159,4.7268,4.7281,4.7318,4.7484,4.749,4.7359,4.7365,4.7369,4.7372,0,0,0,0,0,0,0,4.6879,4.6901,4.7124,4.7067,4.707,4.706,4.7075,4.7185,4.7224,4.7138,4.7135,4.7153,4.7269,4.7309,4.7321,4.7493,4.7358,4.7367,4.7373,4.7377,4.7791,4.7795,0,0,0,0,0,0,4.6868,4.6893,4.7119,4.7128,4.6966,4.707,4.7086,4.7142,4.7223,4.7231,4.7156,4.715,4.7294,4.731,4.7326,4.7508,4.7369,4.7378,4.7384,4.7786,4.7792,4.7797,0,0,0,0,0,0,4.6861,4.6888,4.7113,4.701,4.7038,4.708,4.7143,4.7147,4.7187,4.7237,4.7244,4.719,4.7291,4.7312,4.744,4.7513,4.7383,4.7392,4.778,4.7787,4.7794,4.7873,0,0,0,0,0,0,4.6853,4.6886,4.6943,4.7012,4.7044,4.7225,4.7147,4.7153,4.7204,4.7198,4.727,4.7278,4.7289,4.7426,4.745,4.7524,4.74,4.7773,4.7783,4.7792,4.7864,4.7882,4.7897,0,0,0,0,0,4.6842,4.6959,4.6946,4.6974,4.7116,4.7229,4.7247,4.7257,4.721,4.7268,4.7301,4.7276,4.7501,4.7439,4.7466,4.7544,4.7769,4.778,4.7791,4.7856,4.7878,4.7897,0,0,0,0,0,0,4.6898,4.6968,4.6954,4.7098,4.7158,4.7222,4.7295,4.728,4.7355,4.7346,4.7355,4.7372,4.7503,4.7537,4.7467,4.7695,4.7628,4.7645,4.7668,4.7689,4.7706,4.7695,4.7408,0,0,0,0,0,4.6927,4.7013,4.7069,4.719,4.7221,4.7253,4.7303,4.7306,4.7368,4.7393,4.7435,4.7497,4.7582,4.7637,4.7718,4.7868,4.7884,4.7936,4.7953,4.7966,4.7981,4.8064,4.8088,4.7834,4.7834,4.7833,0,0,4.6988,4.7037,4.709,4.7203,4.725,4.7339,4.7275,4.7371,4.7438,4.7408,4.7532,4.7565,4.7635,4.7775,4.7839,4.7807,4.8055,4.798,4.7991,4.7998,4.8078,4.8102,4.8123,4.7841,4.784,4.7839,0,0,4.7144,4.719,4.7296,4.7344,4.7416,4.7437,4.7463,4.753,4.7551,4.7675,4.7655,4.7734,4.788,4.7931,4.7976,4.8154,4.8134,4.818,4.8267,4.8348,4.8368,4.8386,4.845,4.8473,4.8194,4.8194,4.8194,0,4.7211,4.7344,4.7352,4.7452,4.7502,4.748,4.7588,4.7634,4.7729,4.7765,4.7728,4.7911,4.7956,4.8109,4.8152,4.8189,4.8219,4.8171,4.8364,4.8382,4.8399,4.846,4.8484,4.8199,4.8199,4.8198,4.8198,0,4.7423,4.7515,4.7593,4.7685,4.7744,4.7848,4.7872,4.7932,4.793,4.7955,4.8082,4.8136,4.8228,4.8264,4.8263,4.8417,4.8395,4.8362,4.8295,4.8428,4.8486,4.851,4.8207,4.8205,4.8203,4.8202,0,0,4.7617,4.7714,4.7743,4.7785,4.7863,4.7935,4.8038,4.8128,4.8179,4.8245,4.8332,4.8457,4.8426,4.8478,4.8482,4.8553,4.8692,4.8511,4.8512,4.8543,4.8866,4.8891,4.8918,4.8679,4.8684,4.8687,4.886,0,4.7781,4.7961,4.7973,4.8136,4.8223,4.8203,4.8293,4.8351,4.8378,4.8455,4.8485,4.8573,4.8526,4.8557,4.8626,4.866,4.8757,4.8648,4.876,4.8764,4.8744,4.8948,4.8974,4.9135,4.8883,4.8887,4.8889,0,4.7996,4.8069,4.8241,4.8309,4.8346,4.8426,4.851,4.8584,4.865,4.8665,4.8723,4.8718,4.8824,4.8754,4.89,4.8826,4.8873,4.8897,4.8903,4.8914,4.8835,4.8965,4.9186,4.921,4.8925,4.8922,4.8919,0,4.8121,4.8263,4.8385,4.8422,4.8503,4.856,4.8597,4.8659,4.8713,4.8786,4.8821,4.8907,4.8953,4.902,4.9038,4.8985,4.9185,4.9116,4.92,4.92,4.9243,4.924,4.9476,4.9273,4.9273,4.9272,4.9272,0,4.8303,4.8409,4.8443,4.8518,4.8637,4.8649,4.8767,4.88,4.8855,4.8937,4.8925,4.9002,4.9022,4.9103,4.9118,4.9238,4.9259,4.9274,4.9276,4.9275,4.9273,4.9306,4.9295,4.9279,4.9277,4.9276,4.9275,0,4.8463,4.849,4.8621,4.8688,4.8707,4.8792,4.885,4.8922,4.8947,4.9051,4.9076,4.9116,4.921,4.9235,4.9349,4.9359,4.95,4.9492,4.9478,4.9478,4.9561,4.9553,4.9826,4.9862,4.9636,4.9638,4.964,0,4.8577,4.8659,4.8734,4.8788,4.8828,4.8914,4.8969,4.8985,4.9043,4.9126,4.9188,4.9282,4.9357,4.9509,4.9549,4.9636,4.963,4.972,4.9643,4.9639,4.9632,4.9627,4.9635,4.9734,4.9736,4.9738,4.974,0,4.8777,4.8787,4.8866,4.8952,4.9018,4.9085,4.915,4.9195,4.922,4.9286,4.9383,4.9441,4.9558,4.9651,4.9739,4.9777,4.9764,4.9764,4.9788,4.9787,4.9776,4.9784,4.9518,4.9758,4.9756,4.9754,4.9754,4.9753,4.8918,4.899,4.9055,4.9144,4.9195,4.9256,4.9328,4.9363,4.9443,4.9539,4.9544,4.9649,4.9715,4.9831,4.9875,4.9958,4.9931,4.9966,4.9975,4.9983,4.999,4.9763,4.9974,4.9973,4.9973,4.9972,4.9972,0,4.9118,4.9159,4.9241,4.9333,4.9403,4.9385,4.9456,4.9516,4.9609,4.9671,4.9746,4.9858,4.9948,4.9996,5.0086,5.0143,5.0139,5.0166,5.0162,5.0172,5.0009,4.9979,5.0168,5.0168,5.0168,5.0168,5.0168,5.0168,4.923,4.9351,4.9368,4.9515,4.9555,4.9658,4.9701,4.9757,4.9807,4.9932,5.0008,5.0038,5.0094,5.0189,5.0271,5.0283,5.0317,5.0347,5.0356,5.0203,5.0183,5.0164,5.0136,5.0354,5.0355,5.0511,5.0513,5.0514]},{"header":{"parameterUnit":"m.s-1","parameterCategory":1,"la1":30.2991,"la2":30.254,"lo1":-89.0895,"lo2":-89.0444,"dy":0.0017,"dx":0.0017,"nx":28,"ny":28,"refTime":"2024-04-03T09:00:00:Z","depth":0,"parameterNumber":3,"parameterNumberName":"V-component_of_WINDS"},"data":[0,0,0,0,0,0,0,0,0,0,0,0,0,0,0,0,0,0,0,0,0,0,0,0,0,0,0,0,0,0,0,0,0,0,0,0,0,0,0,0,0,0,0,0,0,0,0,0,0,0,0,0,0,0,0,0,0,0,-4.3965,-4.3967,0,-4.4149,-4.4151,-4.4153,-4.4118,-4.4114,-4.4111,-4.4108,-4.4298,-4.4306,-4.4314,0,0,0,0,0,0,0,0,0,0,0,0,0,-4.3586,-4.3593,-4.3965,-4.3967,-4.3969,-4.4148,-4.4151,-4.4154,-4.4118,-4.4114,-4.411,-4.4107,-4.4295,-4.4305,-4.4315,0,0,0,0,0,0,0,0,0,0,0,0,0,-4.3758,-4.3595,-4.3964,-4.3973,-4.3976,-4.4148,-4.4151,-4.4154,-4.4119,-4.4114,-4.4109,-4.4105,-4.4292,-4.4304,-4.4316,-4.4491,0,0,-4.4354,-4.4359,0,0,0,0,0,0,0,0,-4.3748,-4.3772,-4.397,-4.3973,-4.3976,-4.4105,-4.4087,-4.4267,-4.412,-4.4065,-4.4108,-4.4102,-4.4238,-4.4254,-4.43,-4.45,-4.4508,-4.4355,-4.4362,-4.4367,-4.4371,0,0,0,0,0,0,0,-4.3737,-4.3764,-4.4038,-4.3973,-4.3977,-4.3969,-4.3988,-4.4121,-4.4177,-4.4069,-4.4067,-4.4089,-4.4239,-4.4288,-4.4304,-4.4511,-4.4354,-4.4365,-4.4373,-4.4377,-4.4866,-4.4871,0,0,0,0,0,0,-4.3721,-4.3754,-4.4032,-4.4043,-4.3848,-4.398,-4.4001,-4.4069,-4.4176,-4.4187,-4.4093,-4.4087,-4.427,-4.429,-4.4311,-4.4524,-4.4367,-4.4379,-4.4386,-4.486,-4.4867,-4.4873,0,0,0,0,0,0,-4.3713,-4.3746,-4.4024,-4.3898,-4.3933,-4.3992,-4.4068,-4.4075,-4.4124,-4.4194,-4.4204,-4.4133,-4.4267,-4.4293,-4.4447,-4.453,-4.4384,-4.4395,-4.4854,-4.4862,-4.487,-4.4951,0,0,0,0,0,0,-4.3702,-4.3744,-4.381,-4.39,-4.394,-4.4157,-4.4073,-4.4082,-4.4145,-4.4139,-4.4234,-4.4245,-4.4265,-4.4429,-4.4459,-4.4544,-4.4405,-4.4846,-4.4857,-4.4867,-4.4941,-4.4961,-4.4978,0,0,0,0,0,-4.3689,-4.3826,-4.3814,-4.3847,-4.4024,-4.4162,-4.4185,-4.4204,-4.4152,-4.422,-4.4265,-4.4242,-4.4516,-4.4445,-4.4479,-4.4569,-4.4841,-4.4854,-4.4867,-4.4933,-4.4957,-4.4978,0,0,0,0,0,0,-4.3745,-4.3838,-4.3825,-4.3995,-4.4071,-4.4156,-4.4242,-4.4229,-4.4322,-4.4312,-4.4333,-4.4355,-4.4511,-4.4555,-4.4474,-4.4744,-4.4671,-4.4691,-4.471,-4.4734,-4.4752,-4.4739,-4.4415,0,0,0,0,0,-4.3776,-4.388,-4.3956,-4.4098,-4.4137,-4.4183,-4.4243,-4.4252,-4.4332,-4.4364,-4.442,-4.4498,-4.4602,-4.467,-4.4769,-4.4947,-4.4968,-4.5026,-4.5044,-4.5059,-4.5076,-4.5175,-4.5202,-4.4915,-4.4915,-4.4914,0,0,-4.3844,-4.3907,-4.3971,-4.4111,-4.4171,-4.4278,-4.421,-4.4326,-4.4407,-4.4382,-4.453,-4.4574,-4.4663,-4.483,-4.4906,-4.4871,-4.516,-4.5075,-4.5086,-4.5096,-4.5191,-4.5218,-4.5242,-4.4923,-4.4922,-4.492,0,0,-4.4021,-4.4079,-4.4205,-4.4266,-4.4357,-4.4387,-4.4417,-4.4505,-4.4533,-4.4682,-4.4666,-4.4762,-4.494,-4.5004,-4.5061,-4.5264,-4.5247,-4.5295,-4.5393,-4.5489,-4.5511,-4.5531,-4.5605,-4.5631,-4.5312,-4.5312,-4.5313,0,-4.4093,-4.4254,-4.4271,-4.439,-4.4452,-4.4434,-4.4562,-4.462,-4.474,-4.4784,-4.4743,-4.4967,-4.5026,-4.5208,-4.5257,-4.5303,-4.5339,-4.5285,-4.5506,-4.5527,-4.5546,-4.5617,-4.5644,-4.5318,-4.5317,-4.5317,-4.5316,0,-4.4339,-4.4451,-4.4541,-4.4657,-4.4729,-4.4852,-4.4889,-4.496,-4.4963,-4.4997,-4.515,-4.522,-4.5334,-4.5377,-4.5381,-4.5561,-4.5537,-4.5501,-4.5428,-4.5579,-4.5645,-4.5673,-4.5326,-4.5324,-4.5322,-4.5321,0,0,-4.4557,-4.468,-4.4714,-4.4766,-4.4866,-4.4953,-4.5075,-4.5186,-4.5248,-4.5331,-4.5435,-4.5586,-4.5554,-4.5618,-4.5629,-4.5713,-4.5871,-4.5667,-4.567,-4.5704,-4.6076,-4.6103,-4.6134,-4.586,-4.5865,-4.5869,-4.6069,0,-4.4745,-4.496,-4.4979,-4.5173,-4.5278,-4.5262,-4.5369,-4.5442,-4.5477,-4.5572,-4.5611,-4.5719,-4.5668,-4.5706,-4.5789,-4.5834,-4.5946,-4.582,-4.5958,-4.5963,-4.5938,-4.6168,-4.6197,-4.6382,-4.6095,-4.6099,-4.6102,0,-4.4993,-4.5083,-4.5287,-4.5373,-4.5418,-4.5513,-4.5617,-4.5707,-4.579,-4.581,-4.5882,-4.5881,-4.6009,-4.593,-4.6106,-4.602,-4.6078,-4.6109,-4.6117,-4.6131,-4.6043,-4.6191,-4.6441,-4.647,-4.6143,-4.614,-4.6137,0,-4.5134,-4.5306,-4.5451,-4.5496,-4.5599,-4.5667,-4.5714,-4.5792,-4.5857,-4.5948,-4.5991,-4.6096,-4.6154,-4.6235,-4.6263,-4.6203,-4.6439,-4.6362,-4.6461,-4.646,-4.6512,-4.6509,-4.6777,-4.6547,-4.6546,-4.6546,-4.6545,0,-4.5342,-4.5468,-4.5515,-4.5605,-4.5746,-4.5767,-4.5906,-4.5949,-4.6019,-4.6117,-4.6109,-4.6202,-4.6232,-4.6331,-4.6353,-4.6497,-4.6522,-4.6543,-4.6548,-4.6545,-4.6543,-4.6584,-4.6573,-4.6553,-4.6552,-4.655,-4.6549,0,-4.5524,-4.556,-4.5717,-4.5802,-4.5826,-4.5927,-4.6,-4.6087,-4.612,-4.6245,-4.6275,-4.6329,-4.6444,-4.648,-4.6619,-4.6634,-4.6803,-4.6795,-4.6775,-4.6776,-4.6872,-4.6863,-4.7178,-4.7221,-4.6961,-4.6963,-4.6965,0,-4.5655,-4.5752,-4.5847,-4.5912,-4.5961,-4.6065,-4.6132,-4.6157,-4.6227,-4.633,-4.6405,-4.6518,-4.6611,-4.6796,-4.6848,-4.6954,-4.695,-4.7053,-4.6966,-4.6961,-4.6954,-4.6949,-4.6959,-4.707,-4.7073,-4.7075,-4.7077,0,-4.5885,-4.5898,-4.5995,-4.6099,-4.6179,-4.6262,-4.6342,-4.6395,-4.6432,-4.6511,-4.6629,-4.67,-4.6842,-4.6956,-4.7064,-4.7113,-4.7102,-4.7103,-4.7132,-4.7131,-4.7115,-4.7127,-4.6821,-4.7096,-4.7094,-4.7093,-4.7092,-4.7091,-4.6047,-4.6132,-4.6213,-4.6321,-4.6384,-4.6459,-4.6545,-4.6589,-4.6687,-4.6805,-4.6813,-4.6941,-4.7022,-4.7167,-4.7221,-4.7322,-4.7292,-4.7333,-4.7344,-4.7354,-4.7363,-4.7098,-4.7341,-4.7341,-4.734,-4.734,-4.7339,0,-4.6278,-4.6329,-4.6428,-4.654,-4.6626,-4.6606,-4.6694,-4.6767,-4.6879,-4.6956,-4.7047,-4.7183,-4.7293,-4.7354,-4.7464,-4.7533,-4.7531,-4.7562,-4.7558,-4.757,-4.7382,-4.7347,-4.7562,-4.7562,-4.7562,-4.7562,-4.7562,-4.7562,-4.6408,-4.6552,-4.6575,-4.6751,-4.6801,-4.6926,-4.6978,-4.7047,-4.7109,-4.726,-4.7352,-4.739,-4.7462,-4.7577,-4.7678,-4.7693,-4.7735,-4.7769,-4.7781,-4.7605,-4.7583,-4.7561,-4.7528,-4.7777,-4.7778,-4.7961,-4.7962,-4.7964]}]]